COSMOS 2251 DEB

Satellite information

Favourite Embed

Satellite Type and Status

DEBRISIN ORBIT

Key statistics

Satellite COSMOS 2251 DEB at a glance.

Uptime

11770

Days in orbit

Revolutions

≈ 14.5

Per day

Orbit

LEO

Low Earth Orbit

Inclination

74.1

Latest

Satellite identification and parameters

Extended collection of information and parameters for COSMOS 2251 DEB.

Object identification

Identified? True

Debris? True

Object name: COSMOS 2251 DEB

International designator: 1993-036WR

Object number (NORAD): 34620

Object ID (CCSDS): 34620

Country: COMMONWEALTH OF INDEPENDENT STATES (CIS)

Current information (Y/N): Y

RCS size: SMALL

Orbital parameters

Period: 99.561 minutes

Inclination: 74.0542 deg

SMA: 7115.739 km

Apoapsis: 798.686 km

Periapsis: 676.521 km

RAAN: 42.5432 deg

Eccentricy: 0.00858413

Argument of periapsis: 104.7478 deg

Mean anomaly: 256.3213 deg

Mean motion: 14.46347977 rev/day

Mean motion (dot): 0.00015227 rev/day2

B* drag term: 0.0040520918 1/REarth

Two-line elements (TLE)

Creation date: Sept. 6, 2025, 2:09 a.m.

Reference frame: TEME

Reference center: EARTH

Epoch: Sept. 5, 2025, 7:50 p.m. UTC

TLE line 0: 0 COSMOS 2251 DEB

TLE line 1: 1 34620U 93036WR 25248.82675787 .00015227 00000-0 40521-2 0 9998

TLE line 2: 2 34620 74.0542 42.5432 0085841 104.7478 256.3213 14.46347977854108

Live tracking on map

Real-time ground track for satellite COSMOS 2251 DEB.

In-orbit conjunctions

A list of the most updated potential collisions computed for object COSMOS 2251 DEB.

Target Orbit TCA Probability of collision Miss distance Type
SL-16 DEB LEO 2024-09-25 12:02:03 0.0001624051 836.0 (m) DEBRIS
AUREOLE 2 LEO 2024-09-18 19:57:42 0.0002125289 116.0 (m) PAYLOAD

Associated space launch

Military communications satellite. Destroyed in a collision with Iridium 33.

COSMOS 2251 DEB was lifted into orbit during the mission ‘Kosmos-3M | Strela-2M 51’, on board a Kosmos-3M space rocket.

The launch took place on June 16, 1993, 4:17 a.m. from 132/1 (132L).

For more information about the launch, click the button.

Launch to space Kosmos-3M | Strela-2M 51
Kosmos-3M | Strela-2M 51

Agency: N/A

Status: Launch Successful

Launch date: June 16, 1993, 4:17 a.m. UTC

Rocket: Kosmos-3M

Launch pad: 132/1 (132L)

Location: Plesetsk Cosmodrome, Russian Federation

...

Latest news about this satellite

There are no fresh news available about this satellite. Check back as we update our databases every day.


Newsletter sign-up

Weekly statistics, charts and insights to help you stay on top of the space industry.